N3WGC-14 Weather Reports


time (UTC)temp
C
wind
direction
speed
KPH
gust
KPH
rain 1hr
cm
rain 24hr
cm
rain mn
cm
humidity
%
barometer
mb
20260504100132 13 248 3.2 4.8 0.00 0.00 0.00 72 1015.5
20260504090130 13 238 3.2 4.8 0.00 0.00 0.00 76 1015.7
20260504081629 12 272 0.0 1.6 0.00 0.00 0.00 79 1015.7
20260504081128 12 215 1.6 3.2 0.00 0.00 0.00 78 1015.7
20260504080628 12 228 0.0 0.0 0.00 0.00 0.00 77 1015.8
20260504080128 12 219 3.2 4.8 0.00 0.00 0.00 77 1015.8
20260504070126 12 244 4.8 8.0 0.00 0.00 0.00 73 1015.9
20260504060125 12 30 0.0 0.0 0.00 0.00 0.00 72 1015.9
20260504050623 12 53 0.0 1.6 0.00 0.00 0.00 72 1015.7
20260504050123 12 53 0.0 1.6 0.00 0.00 0.00 71 1015.8
20260504045623 12 224 0.0 1.6 0.00 0.00 0.00 71 1015.9
20260504045123 12 224 0.0 0.0 0.00 0.00 0.00 72 1016.0
20260504044622 12 274 3.2 4.8 0.00 0.00 0.00 72 1016.0
20260504044122 11 8 0.0 3.2 0.00 0.00 0.00 72 1015.9
20260504043622 11 252 0.0 4.8 0.00 0.00 0.00 75 1016.0
20260504043122 11 224 0.0 1.6 0.00 0.00 0.00 77 1016.0
20260504042622 11 225 0.0 1.6 0.00 0.00 0.00 78 1015.9
20260504042122 11 323 0.0 0.0 0.00 0.00 0.00 78 1015.8
20260504041621 11 323 0.0 1.6 0.00 0.00 0.00 77 1015.7
20260504041121 10 323 0.0 0.0 0.00 0.00 0.00 77 1015.7
20260504040621 10 97 0.0 1.6 0.00 0.00 0.00 77 1015.8
20260504040121 10 97 0.0 1.6 0.00 0.00 0.00 78 1015.7
20260504035621 10 97 0.0 1.6 0.00 0.00 0.00 80 1015.6
20260504035121 9 97 0.0 0.0 0.00 0.00 0.00 81 1015.6
20260504034620 10 82 0.0 1.6 0.00 0.00 0.00 79 1015.5
20260504034120 9 82 1.6 3.2 0.00 0.00 0.00 81 1015.5
20260504033620 9 82 0.0 0.0 0.00 0.00 0.00 82 1015.5
20260504033120 8 195 0.0 0.0 0.00 0.00 0.00 83 1015.4
20260504032620 8 197 0.0 0.0 0.00 0.00 0.00 83 1015.4
20260504032120 8 215 0.0 0.0 0.00 0.00 0.00 84 1015.3
20260504031620 8 215 0.0 1.6 0.00 0.00 0.00 83 1015.3
20260504031119 8 215 0.0 0.0 0.00 0.00 0.00 84 1015.3
20260504030619 8 259 0.0 1.6 0.00 0.00 0.00 82 1015.3
20260504030119 8 259 0.0 1.6 0.00 0.00 0.00 82 1015.3
20260504025619 8 259 0.0 1.6 0.00 0.00 0.00 82 1015.3
20260504025119 8 259 0.0 1.6 0.00 0.00 0.00 82 1015.3
20260504024619 8 259 0.0 0.0 0.00 0.00 0.00 81 1015.3
20260504024119 8 259 0.0 0.0 0.00 0.00 0.00 79 1015.3
20260504023548 8 259 0.0 0.0 0.00 0.00 0.00 78 1015.2
20260504023048 8 259 0.0 0.0 0.00 0.00 0.00 77 1015.3
20260504022548 8 259 0.0 0.0 0.00 0.00 0.00 76 1015.3
20260504022048 8 259 0.0 1.6 0.00 0.00 0.00 77 1015.2
20260504021548 8 259 0.0 1.6 0.00 0.00 0.00 76 1015.3
20260504021048 8 259 1.6 3.2 0.00 0.00 0.00 75 1015.2
20260504020547 8 259 0.0 1.6 0.00 0.00 0.00 75 1015.2
20260504020047 8 259 0.0 0.0 0.00 0.00 0.00 75 1015.2
20260504015547 9 259 0.0 0.0 0.00 0.00 0.00 77 1015.2
20260504015047 9 259 0.0 1.6 0.00 0.00 0.00 75 1015.1
20260504014547 9 259 1.6 1.6 0.00 0.00 0.00 75 1015.1
20260504014047 9 259 0.0 1.6 0.00 0.00 0.00 75 1015.1
20260504013547 10 259 0.0 1.6 0.00 0.00 0.00 75 1015.1
20260504013046 10 259 0.0 1.6 0.00 0.00 0.00 74 1015.0
20260504012546 10 259 1.6 1.6 0.00 0.00 0.00 74 1015.0
20260504012046 10 259 0.0 1.6 0.00 0.00 0.00 72 1015.0
20260504011546 11 259 0.0 1.6 0.00 0.00 0.00 70 1014.9
20260504011046 11 259 0.0 0.0 0.00 0.00 0.00 68 1014.9
20260504010546 12 259 0.0 1.6 0.00 0.00 0.00 66 1014.9
20260504010045 12 259 1.6 1.6 0.00 0.00 0.00 64 1014.9
20260504005545 13 259 0.0 4.8 0.00 0.00 0.00 63 1014.8
20260504005045 13 262 0.0 1.6 0.00 0.00 0.00 64 1014.7
20260504004545 13 264 0.0 0.0 0.00 0.00 0.00 64 1014.7
20260504004045 13 257 0.0 1.6 0.00 0.00 0.00 61 1014.6
20260504003545 13 257 1.6 3.2 0.00 0.00 0.00 60 1014.6
20260504003045 13 259 0.0 1.6 0.00 0.00 0.00 58 1014.6
20260504002544 14 260 0.0 0.0 0.00 0.00 0.00 57 1014.5
20260504002044 14 265 0.0 1.6 0.00 0.00 0.00 56 1014.4
20260504001544 14 270 0.0 0.0 0.00 0.00 0.00 56 1014.4
20260504001044 15 270 0.0 1.6 0.00 0.00 0.00 56 1014.3
20260504000544 15 271 3.2 3.2 0.00 0.00 0.00 56 1014.3
20260504000044 15 259 3.2 4.8 0.00 0.00 0.00 54 1014.3
20260503235543 15 261 1.6 3.2 0.00 0.00 0.00 51 1014.2
20260503235043 15 261 1.6 3.2 0.00 0.00 0.00 49 1014.1
20260503234543 15 270 1.6 3.2 0.00 0.00 0.00 48 1014.1
20260503234043 16 270 1.6 3.2 0.00 0.00 0.00 47 1014.0
20260503233513 16 305 3.2 4.8 0.00 0.00 0.00 48 1013.9
20260503233013 16 267 8.0 11.3 0.00 0.00 0.00 47 1013.9
20260503232513 16 265 1.6 4.8 0.00 0.00 0.00 45 1013.9
20260503232012 16 268 3.2 4.8 0.00 0.00 0.00 45 1013.9
20260503231512 16 269 4.8 8.0 0.00 0.00 0.00 42 1013.9
20260503231012 16 269 4.8 9.7 0.00 0.00 0.00 43 1014.0
20260503230512 16 279 8.0 8.0 0.00 0.00 0.00 44 1013.9
20260503230012 16 294 8.0 14.5 0.00 0.00 0.00 43 1013.9
20260503225512 16 284 4.8 4.8 0.00 0.00 0.00 45 1014.0
20260503225012 16 273 4.8 4.8 0.00 0.00 0.00 44 1014.0
20260503224511 16 269 4.8 9.7 0.00 0.00 0.00 42 1014.0
20260503224011 16 269 8.0 11.3 0.00 0.00 0.00 42 1014.0
20260503223511 16 281 8.0 4.8 0.00 0.00 0.00 43 1013.9
20260503223011 16 264 4.8 11.3 0.00 0.00 0.00 41 1013.9
20260503222511 16 276 4.8 4.8 0.00 0.00 0.00 42 1013.9
20260503222011 16 272 8.0 14.5 0.00 0.00 0.00 42 1014.0
20260503221510 16 278 8.0 11.3 0.00 0.00 0.00 42 1014.1
20260503221010 16 269 8.0 9.7 0.00 0.00 0.00 43 1014.1
20260503220510 16 260 4.8 12.9 0.00 0.00 0.00 42 1014.1
20260503220010 16 285 8.0 11.3 0.00 0.00 0.00 40 1014.2
20260503215510 16 316 4.8 9.7 0.00 0.00 0.00 40 1014.2
20260503215010 16 277 4.8 12.9 0.00 0.00 0.00 40 1014.2
20260503214510 16 298 9.7 12.9 0.00 0.00 0.00 39 1014.2
20260503214009 16 268 8.0 14.5 0.00 0.00 0.00 41 1014.2
20260503213509 16 290 12.9 19.3 0.00 0.00 0.00 39 1014.2
20260503213009 16 289 12.9 19.3 0.00 0.00 0.00 42 1014.2
20260503212509 16 305 11.3 19.3 0.00 0.00 0.00 42 1014.1
20260503212009 16 290 9.7 16.1 0.00 0.00 0.00 41 1014.1
20260503211509 16 296 11.3 12.9 0.00 0.00 0.00 42 1014.1
20260503211009 16 282 9.7 14.5 0.00 0.00 0.00 42 1014.1
20260503210508 16 307 8.0 12.9 0.00 0.00 0.00 42 1014.1
20260503210008 16 272 9.7 9.7 0.00 0.00 0.00 42 1014.2
20260503205508 16 283 9.7 9.7 0.00 0.00 0.00 44 1014.2
20260503205008 16 297 11.3 14.5 0.00 0.00 0.00 40 1014.3
20260503204508 16 286 12.9 19.3 0.00 0.00 0.00 42 1014.3
20260503204008 16 299 11.3 14.5 0.00 0.00 0.00 45 1014.4
20260503203437 16 285 14.5 20.9 0.00 0.00 0.00 40 1014.4
20260503202937 15 283 11.3 19.3 0.00 0.00 0.00 45 1014.4
20260503202437 15 282 11.3 12.9 0.00 0.00 0.00 41 1014.4
20260503201937 15 289 11.3 12.9 0.00 0.00 0.00 41 1014.5
20260503201437 15 293 11.3 19.3 0.00 0.00 0.00 41 1014.5
20260503200937 15 287 12.9 19.3 0.00 0.00 0.00 42 1014.6
20260503200437 15 293 9.7 19.3 0.00 0.00 0.00 44 1014.6
20260503195936 15 283 14.5 20.9 0.00 0.00 0.00 43 1014.8
20260503195436 15 290 12.9 20.9 0.00 0.00 0.00 43 1014.8
20260503194936 15 295 8.0 12.9 0.00 0.00 0.00 46 1014.8
20260503194436 15 282 12.9 20.9 0.00 0.00 0.00 44 1014.9
20260503193936 15 283 9.7 20.9 0.00 0.00 0.00 46 1014.9
20260503193436 15 289 12.9 19.3 0.00 0.00 0.00 43 1014.9
20260503192935 15 287 11.3 19.3 0.00 0.00 0.00 44 1015.0
20260503192435 15 288 11.3 19.3 0.00 0.00 0.00 44 1015.0
20260503191935 15 299 11.3 19.3 0.00 0.00 0.00 44 1015.1
20260503191435 14 283 9.7 19.3 0.00 0.00 0.00 45 1015.2
20260503190935 14 293 12.9 20.9 0.00 0.00 0.00 42 1015.3
20260503190435 14 300 19.3 24.1 0.00 0.00 0.00 44 1015.3
20260503185935 14 285 12.9 25.7 0.00 0.00 0.00 46 1015.3
20260503185434 14 288 14.5 24.1 0.00 0.00 0.00 43 1015.4
20260503184934 14 303 12.9 19.3 0.00 0.00 0.00 45 1015.3
20260503184434 13 287 14.5 19.3 0.00 0.00 0.00 46 1015.5
20260503183934 13 285 19.3 24.1 0.00 0.00 0.00 45 1015.6
20260503183434 13 276 14.5 32.2 0.00 0.00 0.00 45 1015.6
20260503182934 13 295 11.3 20.9 0.00 0.00 0.00 45 1015.6
20260503182434 13 288 14.5 20.9 0.00 0.00 0.00 46 1015.6
20260503181933 13 287 19.3 29.0 0.00 0.00 0.00 44 1015.6
20260503181433 13 279 12.9 22.5 0.00 0.00 0.00 44 1015.8
20260503180933 13 285 16.1 27.4 0.00 0.00 0.00 45 1015.7
20260503180433 13 290 19.3 24.1 0.00 0.00 0.00 44 1015.8
20260503175933 13 321 8.0 19.3 0.00 0.00 0.00 47 1015.8
20260503175433 13 276 11.3 20.9 0.00 0.00 0.00 47 1015.8
20260503174932 13 308 19.3 22.5 0.00 0.00 0.00 43 1015.9
20260503174432 13 277 14.5 24.1 0.00 0.00 0.00 42 1015.9
20260503173932 13 305 11.3 16.1 0.00 0.00 0.00 41 1015.9
20260503173432 13 297 12.9 16.1 0.00 0.00 0.00 42 1016.0
20260503172932 13 309 8.0 19.3 0.00 0.00 0.00 42 1016.0
20260503172432 13 292 9.7 22.5 0.00 0.00 0.00 42 1016.0
20260503171932 13 286 14.5 22.5 0.00 0.00 0.00 46 1016.1
20260503171431 13 282 9.7 14.5 0.00 0.00 0.00 43 1016.1
20260503170931 13 278 12.9 19.3 0.00 0.00 0.00 45 1016.0
20260503170431 13 285 12.9 22.5 0.00 0.00 0.00 44 1016.0
20260503150928 11 314 11.3 19.3 0.00 0.00 0.00 51 1016.6
20260503150427 11 326 11.3 12.9 0.00 0.00 0.00 50 1016.6
20260503130924 9 316 12.9 22.5 0.00 0.00 0.00 60 1016.7
20260503130424 9 316 19.3 35.4 0.00 0.00 0.00 59 1016.5
20260503110420 7 319 19.3 25.7 0.00 0.00 0.00 67 1015.3